Martinsburg, WV

12:18 AM EDT on July 27, 2017 (GMT -0400)
Eastern W Va Regional-Shepherd

Weather History for KMRB - August, 2014

Change the Weather History Date:

Sunday, August 24, 2014

  Actual Average Record
Temperature  
Mean Temperature 70 °F 72 °F  
Max Temperature 78 °F 83 °F 104 °F (1936)
Min Temperature 61 °F 61 °F 44 °F (1952)
Degree Days  
Heating Degree Days 0 0  
Month to date heating degree days 0 0  
Since 1 June heating degree days 5 25  
Since 1 July heating degree days 3 1  
Cooling Degree Days 5 7  
Month to date cooling degree days 164 202  
Year to date cooling degree days 782 745  
Since 1 June cooling degree days 701 688  
Growing Degree Days 20 (Base 50)    
Moisture  
Dew Point 61 °F    
Average Humidity 69    
Maximum Humidity 90    
Minimum Humidity 47    
Precipitation  
Precipitation 0.06 in 0.10 in 3.90 in (1933)
Month to date precipitation 2.23 2.40  
Year to date precipitation 24.47 25.56  
Sea Level Pressure  
Sea Level Pressure 30.14 in    
Wind  
Wind Speed 3 mph (NE)    
Max Wind Speed 8 mph    
Max Gust Speed 12 mph    
Visibility 8 miles    
Events Rain    
T = Trace of Precipitation, MM = Missing Value Source: NWS Daily Summary

Daily Weather History Graph

Daily Weather History Graph

Search for Another Location

Airport or City:

Trip Planner

Search our weather history database for the weather conditions in past years. The results will help you decide how hot, cold, wet, or windy it might be!

Date:

Astronomy

Aug. 24, 2014 Rise Set
Actual Time 6:32 AM EDT 7:54 PM EDT
Civil Twilight 6:04 AM EDT 8:22 PM EDT
Nautical Twilight 5:31 AM EDT 8:56 PM EDT
Astronomical Twilight 4:55 AM EDT 9:31 PM EDT
Moon 5:41 AM EDT (8/24) 7:12 PM EDT (8/24)
Length of Visible Light 14h 17m
Length of Day
13h 21m
Waning Crescent, 1% of the Moon is Illuminated
Aug 24
Waning Crescent
Aug 25
New
Sep 2
First Quarter
Sep 8
Full
Sep 15
Last Quarter

Hourly Weather History & Observations

Time (EDT) Temp. Dew Point Humidity Pressure Visibility Wind Dir Wind Speed Gust Speed Precip Events Conditions
12:12 AM 66.9 °F 63.0 °F 87% 30.12 in 6.0 mi East 4.6 mph - 0.00 in Rain Light Rain
12:33 AM 66.9 °F 63.0 °F 87% 30.12 in 2.5 mi East 5.8 mph - 0.00 in Rain Light Rain
12:42 AM 66.0 °F 63.0 °F 90% 30.12 in 4.0 mi Variable 3.5 mph - 0.00 in Rain Light Rain
12:53 AM 66.9 °F 63.0 °F 87% 30.11 in 7.0 mi Calm Calm - 0.00 in Rain Light Rain
1:53 AM 66.9 °F 63.0 °F 87% 30.12 in 10.0 mi NE 3.5 mph - 0.01 in   Overcast
2:17 AM 66.9 °F 63.0 °F 87% 30.13 in 4.0 mi NE 4.6 mph - 0.00 in Rain Light Rain
2:21 AM 66.0 °F 63.0 °F 90% 30.13 in 2.5 mi NNE 5.8 mph - 0.00 in Rain Light Rain
2:32 AM 66.0 °F 63.0 °F 90% 30.13 in 1.5 mi NE 6.9 mph - 0.02 in Rain Light Rain
2:39 AM 66.0 °F 63.0 °F 90% 30.13 in 1.5 mi ENE 5.8 mph - 0.02 in Rain Light Rain
2:53 AM 66.0 °F 62.1 °F 87% 30.12 in 2.5 mi ENE 3.5 mph - 0.03 in Rain Light Rain
3:00 AM 66.0 °F 62.1 °F 87% 30.13 in 4.0 mi NE 5.8 mph - 0.00 in Rain Light Rain
3:53 AM 66.0 °F 62.1 °F 87% 30.12 in 10.0 mi NNE 4.6 mph - 0.02 in   Overcast
4:53 AM 64.9 °F 60.1 °F 84% 30.11 in 10.0 mi NNE 4.6 mph - N/A   Overcast
5:31 AM 64.0 °F 60.1 °F 87% 30.13 in 10.0 mi NNE 3.5 mph - N/A   Overcast
5:53 AM 64.0 °F 60.1 °F 87% 30.12 in 10.0 mi NNE 4.6 mph - N/A   Overcast
6:53 AM 64.0 °F 60.1 °F 87% 30.14 in 10.0 mi NNE 4.6 mph - N/A   Overcast
7:53 AM 64.9 °F 60.1 °F 84% 30.15 in 10.0 mi NNE 3.5 mph - N/A   Overcast
8:15 AM 64.9 °F 60.1 °F 84% 30.17 in 10.0 mi NNE 3.5 mph - 0.00 in Rain Light Rain
8:53 AM 66.9 °F 61.0 °F 81% 30.16 in 10.0 mi North 3.5 mph - 0.00 in Rain Light Rain
9:00 AM 66.9 °F 60.1 °F 79% 30.17 in 10.0 mi North 3.5 mph - 0.00 in   Overcast
9:53 AM 70.0 °F 61.0 °F 73% 30.17 in 10.0 mi ENE 5.8 mph - 0.00 in   Overcast
10:23 AM 70.0 °F 61.0 °F 73% 30.18 in 10.0 mi ENE 3.5 mph - N/A   Overcast
10:53 AM 71.1 °F 60.1 °F 68% 30.17 in 10.0 mi Calm Calm - N/A   Overcast
11:39 AM 73.0 °F 59.0 °F 61% 30.18 in 10.0 mi Variable 3.5 mph - N/A   Overcast
11:53 AM 73.0 °F 57.9 °F 59% 30.18 in 10.0 mi ESE 4.6 mph - N/A   Overcast
12:53 PM 75.0 °F 57.0 °F 53% 30.17 in 10.0 mi East 4.6 mph - N/A   Overcast
1:53 PM 77.0 °F 55.0 °F 47% 30.16 in 10.0 mi East 3.5 mph - N/A   Scattered Clouds
2:53 PM 75.9 °F 57.0 °F 52% 30.14 in 10.0 mi ESE 5.8 mph - N/A   Overcast
3:53 PM 75.0 °F 59.0 °F 57% 30.13 in 10.0 mi SE 4.6 mph - N/A   Overcast
4:53 PM 75.9 °F 57.9 °F 54% 30.13 in 10.0 mi ESE 3.5 mph - N/A   Overcast
5:53 PM 75.0 °F 57.9 °F 55% 30.13 in 10.0 mi Calm Calm - N/A   Overcast
6:53 PM 73.9 °F 62.1 °F 66% 30.12 in 10.0 mi Calm Calm - N/A   Overcast
7:53 PM 70.0 °F 61.0 °F 73% 30.13 in 10.0 mi Calm Calm - N/A   Partly Cloudy
8:53 PM 68.0 °F 60.1 °F 76% 30.14 in 10.0 mi Calm Calm - N/A   Clear
10:53 PM 63.0 °F 59.0 °F 87% 30.15 in 9.0 mi Calm Calm - N/A   Clear
11:53 PM 62.1 °F 59.0 °F 90% 30.16 in 6.0 mi Calm Calm - N/A   Clear